{"data":{"norad_id":65410,"intl_designator":"2025-192G","name":"STARLINK-35024","alt_names":[],"object_type":"PAYLOAD","status":"ACTIVE","operator":null,"country":"US","launch_date":"2025-08-31","launch_site_code":"AFETR","launch_vehicle":null,"mission":null,"orbit_class":"UNKNOWN","rcs_meters":null,"size_class":null,"mass_kg":null,"dimensions":null,"purposes":["comms"],"wikipedia_slug":null,"has_3d_model":false,"image_url":null,"decayed_at":null,"tle_current":{"epoch":"2026-09-20T02:36:30.312288Z","epoch_age_seconds":148768,"freshness":"FRESH","line1":"1 65410U 25192G   26263.10868417  .00012616  00000+0  41750-3 0  9994","line2":"2 65410  53.1586  47.6642 0001494  87.5485 272.5688 15.31708883 59174","mean_motion":15.31708883,"eccentricity":0.0001494,"inclination_deg":53.1586,"raan_deg":47.6642,"arg_perigee_deg":87.5485,"mean_anomaly_deg":272.5688,"bstar":0.0004175,"rev_number":5917,"period_min":94.012642740546,"perigee_km":469.69029732582,"apogee_km":471.73673385988,"semimajor_km":6848.8505155929,"source":"CELESTRAK","updated_at":"2026-09-21T09:00:35.603477Z"}}}